Location: Batang Balui
(2.7000°N, 113.7833°E)
Time: 01:56:06
(UTC+00:00)

FO-29 - Pass Details

Date: 01 April 2023
Orbit: 799 x 1322 km, 98.5° (Epoch: 29 May)

Event Time Altitude Azimuth Distance (km) Brightness Sun altitude
Rises 20:10:12 0° 34° (NNE) 3,930 13.2 -34.2°
Reaches altitude 10° 20:13:19 10° 45° (NE) 2,886 12.5 -33.4°
Maximum altitude 20:18:34 26° 100° (E) 1,814 11.4 -32.1°
Drops below altitude 10° 20:23:20 10° 155° (SSE) 2,610 11.9 -30.9°
Sets 20:26:00 0° 168° (SSE) 3,485 12.5 -30.3°
